Погода в Фунтуа

Нигерия     11°31′34″N   7°18′33″E
темп.,
°C
ветер,
м/с
пор.,
м/с
влажн.,
%
обл.,
%
осадки,
мм/ч
давл.,
гПа
погр.,
м
11 апреля, вс
вс1101:00+27в3380 0.0 100716
04:00+24юв12713 0.0 100614
07:00+23ю3365 0.0 100937
10:00+34юз329100 0.0 1009891
13:00+39всв55466 0.0 10063638
16:00+38всв546100 0.0 10053858
19:00+30в221069 0.0 100611
22:00+28св33128 0.0 100912
12 апреля, пн
пн1201:00+27всв3311100 0.0 100819
04:00+23ю5113184 0.0 1010175
07:00+22ююз511679 0.0 1012272
10:00+31ю34375 0.0 10131077
13:00+37вюв45142 0.0 10093294
16:00+38всв5595 0.0 10064201
19:00+32св4880 0.0 100797
22:00+29всв5982 0.0 1010113
13 апреля, вт
вт1301:00+27в4595 0.0 101049
04:00+23ююв33200 0.0 101131
07:00+22ююз36590 0.0 1013122
10:00+32ююз23310 0.0 10121138
13:00+38св4780 0.0 10093916
16:00+38св5550 0.0 10074253
19:00+31св4770 0.0 100884
22:00+28св4782 0.0 101078
14 апреля, ср
ср1401:00+27в3390 0.0 100916
04:00+24юв34115 0.0 100935
07:00+23ююз512385 0.0 1012296
10:00+31юз66385 0.0 10121064
13:00+37вюв24185 0.0 10093507
16:00+38св441113 0.0 10064404
19:00+32св451289 0.0 100654
22:00+29всв489100 0.0 1009102
15 апреля, чт
чт1501:00+27ююз4411100 0.0 100940
04:00+22юз51170100 0.0 1010243
07:00+21ю51081100 0.0 1012304
10:00+30зюз5538100 0.0 1012633
13:00+36ссз3515100 0.0 10092974
16:00+37ссв5511100 0.0 10063598
19:00+32св4514100 0.0 100752
22:00+29вюв471588 0.0 100985